UAL2332 KSFO-KAUS

Flight info

Callsign UAL2332
Flight time N/A
Altitude 39000
Route WESLA5 KAYEX LOSHN BOILE Q4 DILLO LAIKS4
Aircraft A21N/M-SDE2E3FGHIRWXY/LB1

Departure

Time 2026-05-04 19:04
Airport San Francisco International Airport (KSFO)

Arrival

Time N/A
Airport Austin Bergstrom International Airport (KAUS)
Time Latitude Longitude Altitude Speed Heading
2026-05-04 18:34 37.61986 -122.38454 13 ft 0 kts 164°
2026-05-04 18:55 37.61999 -122.38458 22 ft 2 kts 164°
2026-05-04 18:55 37.62030 -122.38469 22 ft 2 kts 164°
2026-05-04 18:55 37.62046 -122.38475 22 ft 2 kts 164°
2026-05-04 18:56 37.62061 -122.38483 22 ft 2 kts 145°
2026-05-04 18:56 37.62069 -122.38492 21 ft 0 kts 135°
2026-05-04 18:58 37.62067 -122.38488 22 ft 2 kts 134°
2026-05-04 18:58 37.62057 -122.38472 22 ft 3 kts 127°
2026-05-04 18:58 37.62042 -122.38445 22 ft 2 kts 115°
2026-05-04 18:59 37.62036 -122.38426 23 ft 3 kts 112°
2026-05-04 18:59 37.62023 -122.38380 27 ft 9 kts 106°
2026-05-04 18:59 37.61997 -122.38279 26 ft 15 kts 115°
2026-05-04 18:59 37.61943 -122.38147 29 ft 19 kts 117°
2026-05-04 19:00 37.61877 -122.37988 27 ft 22 kts 118°
2026-05-04 19:00 37.61797 -122.37802 21 ft 26 kts 118°
2026-05-04 19:00 37.61736 -122.37592 24 ft 26 kts 102°
2026-05-04 19:00 37.61687 -122.37438 23 ft 11 kts 117°
2026-05-04 19:01 37.61662 -122.37378 29 ft 9 kts 117°
2026-05-04 19:01 37.61633 -122.37305 29 ft 10 kts 117°
2026-05-04 19:01 37.61595 -122.37215 27 ft 13 kts 117°
2026-05-04 19:01 37.61546 -122.37095 28 ft 17 kts 117°
2026-05-04 19:02 37.61482 -122.36958 26 ft 19 kts 127°
2026-05-04 19:02 37.61390 -122.36810 21 ft 22 kts 122°
2026-05-04 19:02 37.61306 -122.36635 19 ft 25 kts 117°
2026-05-04 19:02 37.61228 -122.36449 20 ft 21 kts 118°
2026-05-04 19:03 37.61169 -122.36311 20 ft 15 kts 118°
2026-05-04 19:03 37.61125 -122.36210 21 ft 11 kts 117°
2026-05-04 19:03 37.61112 -122.36140 20 ft 8 kts 76°
2026-05-04 19:03 37.61158 -122.36072 19 ft 13 kts 32°
2026-05-04 19:04 37.61244 -122.36052 17 ft 17 kts 326°
2026-05-04 19:04 37.61436 -122.36475 18 ft 108 kts 297°
2026-05-04 19:04 37.61954 -122.37704 85 ft 196 kts 297°
2026-05-04 19:04 37.62730 -122.39260 836 ft 223 kts 302°
2026-05-04 19:05 37.63508 -122.41014 2203 ft 239 kts 296°
2026-05-04 19:05 37.64298 -122.42946 3747 ft 249 kts 296°
2026-05-04 19:05 37.65087 -122.44834 5682 ft 242 kts 297°
2026-05-04 19:05 37.65906 -122.46747 7120 ft 255 kts 298°
2026-05-04 19:06 37.66676 -122.48802 8477 ft 264 kts 288°
2026-05-04 19:06 37.66855 -122.51164 9451 ft 283 kts 259°
2026-05-04 19:06 37.66000 -122.53425 10451 ft 296 kts 228°
2026-05-04 19:06 37.64265 -122.54970 11153 ft 319 kts 199°
2026-05-04 19:07 37.62037 -122.55283 12044 ft 330 kts 170°
2026-05-04 19:07 37.59871 -122.54323 13184 ft 334 kts 150°
2026-05-04 19:07 37.57833 -122.52939 14343 ft 340 kts 149°
2026-05-04 19:07 37.55728 -122.51538 15514 ft 344 kts 151°
2026-05-04 19:08 37.53565 -122.50188 16661 ft 349 kts 152°
2026-05-04 19:08 37.51347 -122.48860 17786 ft 354 kts 150°
2026-05-04 19:08 37.49222 -122.47256 18799 ft 355 kts 139°
2026-05-04 19:08 37.47448 -122.45138 19705 ft 356 kts 128°
2026-05-04 19:09 37.45860 -122.42736 20650 ft 359 kts 125°
2026-05-04 19:09 37.44291 -122.40258 21614 ft 362 kts 124°
2026-05-04 19:09 37.42706 -122.37754 22487 ft 368 kts 124°
2026-05-04 19:09 37.41092 -122.35220 23319 ft 374 kts 124°
2026-05-04 19:10 37.39450 -122.32652 24095 ft 378 kts 124°
2026-05-04 19:10 37.37792 -122.30053 24798 ft 382 kts 124°
2026-05-04 19:10 37.36127 -122.27471 25460 ft 386 kts 124°
2026-05-04 19:10 37.34420 -122.24834 26133 ft 390 kts 124°
2026-05-04 19:11 37.32699 -122.22178 26804 ft 393 kts 124°
2026-05-04 19:11 37.30965 -122.19499 27443 ft 397 kts 124°
2026-05-04 19:11 37.29234 -122.16783 27976 ft 400 kts 125°
2026-05-04 19:11 37.27458 -122.14020 28317 ft 410 kts 126°
2026-05-04 19:12 37.25634 -122.11226 28820 ft 415 kts 126°
2026-05-04 19:12 37.21969 -122.05609 29997 ft 422 kts 126°
2026-05-04 19:12 37.20099 -122.02741 30475 ft 426 kts 127°
2026-05-04 19:13 37.18213 -121.99847 30908 ft 429 kts 127°
2026-05-04 19:13 37.16322 -121.96946 31414 ft 430 kts 127°
2026-05-04 19:13 37.14424 -121.94032 31825 ft 433 kts 129°
2026-05-04 19:13 37.12505 -121.91090 32194 ft 437 kts 129°
2026-05-04 19:14 37.10578 -121.88141 32671 ft 437 kts 130°
2026-05-04 19:14 37.08672 -121.85226 33201 ft 437 kts 130°
2026-05-04 19:14 37.06735 -121.82264 33676 ft 438 kts 131°
2026-05-04 19:14 37.04803 -121.79314 34137 ft 438 kts 131°
2026-05-04 19:15 37.02868 -121.76359 34520 ft 439 kts 132°
2026-05-04 19:15 37.00926 -121.73396 34924 ft 439 kts 133°
2026-05-04 19:15 36.98987 -121.70442 35279 ft 440 kts 133°
2026-05-04 19:15 36.97048 -121.67491 35662 ft 439 kts 133°
2026-05-04 19:16 36.95110 -121.64543 36053 ft 439 kts 133°
2026-05-04 19:16 36.93172 -121.61599 36481 ft 438 kts 133°
2026-05-04 19:16 36.91233 -121.58664 36895 ft 438 kts 133°
2026-05-04 19:16 36.89315 -121.55755 37057 ft 438 kts 133°
2026-05-04 19:17 36.87374 -121.52810 37072 ft 438 kts 133°
2026-05-04 19:17 36.83490 -121.46926 37073 ft 438 kts 135°
2026-05-04 19:18 36.79634 -121.41099 37072 ft 438 kts 135°